x

9442396 - La Push, Wa (lapw1) Weather Station

5:36 - Wed 29th Jul 2015 All times are PDT. -7 hours from GMT.

  • Wind
    3mph, 5mph gusts
  • Sea Temp 62°f
  • Aire Temp 57°f
  • Sea Pressure 1022.5mb
  • 9442396 - La Push, Wa
  • 9442396 - La Push, Wa

More Historic Weather Station data

Upgrade to MSW Pro to gain access to the past 30 days of data for over 8000 Wavebouys and Weather Stations around the globe.

Join Pro

Comparision Forecast

View Surf forecast
   
mié 07/29 5:36 3 5 mph 1022.5mb 62f 57f
5:30 2 6 mph 1022.6mb 62f 57f
5:24 5 6 mph 1022.7mb 62f 57f
5:18 3 6 mph 1022.7mb 62f 57f
5:12 5 8 mph 1022.7mb 62f 57f
5:06 6 7 mph 1022.7mb 62f 57f
5:00 3 6 mph 1022.7mb 62f 57f
4:36 2 7 mph 1022.8mb 62f 58f
4:30 5 6 mph 1022.8mb 62f 58f
4:24 5
mph
1022.8mb 61f 58f
4:18 1 5 mph 1022.7mb 61f 58f
4:12 5 6 mph 1022.7mb 60f 58f
4:06 2 6 mph 1022.6mb 60f 58f
4:00 5 8 mph 1022.7mb 59f 58f
3:36 2 5 mph 1022.7mb 58f 58f
3:30 2 3 mph 1022.7mb 57f 58f
3:24 2 5 mph 1022.7mb 57f 58f
3:18 2 3 mph 1022.7mb 57f 58f
3:12 3 6 mph 1022.8mb 57f 58f
3:06 3 8 mph 1022.8mb 57f 58f
3:00 6 8 mph 1022.8mb 57f 58f
2:36 2 3 mph 1022.9mb 57f 58f
2:30 2 6 mph 1023mb 57f 58f
2:24 3 7 mph 1023mb 57f 58f
2:18 5 7 mph 1023mb 57f 58f
2:12 3 7 mph 1023mb 57f 58f
2:06 6 8 mph 1023.1mb 57f 58f
2:00 7 9 mph 1023.1mb 57f 58f
1:36 7 9 mph 1023.2mb 57f 59f
1:30 7 11 mph 1023.2mb 57f 59f
1:24 3 10 mph 1023.2mb 57f 59f
1:18 7 9 mph 1023.3mb 57f 59f
1:12 9 11 mph 1023.4mb 57f 59f
1:06 7 8 mph 1023.4mb 57f 59f
1:00 7 10 mph 1023.4mb 57f 59f
12:36 5 6 mph 1023.5mb 56f 59f
12:30 5 7 mph 1023.5mb 56f 59f
12:24 3 6 mph 1023.5mb 56f 59f
12:18 2 6 mph 1023.5mb 56f 59f
12:12 2 3 mph 1023.6mb 56f 59f
12:06 5 7 mph 1023.5mb 56f 59f
12:00 2 7 mph 1023.5mb 56f 59f
mar 07/28 11:36 3 5 mph 1023.6mb 56f 59f
11:30 5 7 mph 1023.7mb 56f 59f
11:24 3 9 mph 1023.7mb 56f 59f
11:18 5 6 mph 1023.8mb 56f 58f
11:12 3 6 mph 1023.8mb 56f 58f
11:06 3 6 mph 1023.9mb 56f 59f
11:00 2 8 mph 1023.9mb 56f 58f
10:36 3 5 mph 1024mb 56f 59f
10:30 2 7 mph 1023.9mb 56f 59f
10:24 3 6 mph 1023.9mb 57f 59f
10:18 2 5 mph 1023.9mb 57f 59f
10:12 5 6 mph 1023.8mb 57f 59f
10:06 3 5 mph 1023.8mb 57f 59f
10:00 3 6 mph 1023.9mb 57f 59f
9:36 5 7 mph 1023.8mb 57f 60f
9:30 5 8 mph 1023.8mb 57f 60f
9:24 5 7 mph 1023.8mb 57f 60f
9:18 3 11 mph 1023.8mb 57f 60f
9:12 6 11 mph 1023.8mb 57f 60f
9:06 9 13 mph 1023.7mb 57f 61f
9:00 11 14 mph 1023.8mb 57f 61f
8:36 13 17 mph 1023.7mb 57f 61f
8:30 14 17 mph 1023.8mb 57f 61f
8:24 15 17 mph 1023.8mb 57f 61f
8:18 15 17 mph 1023.9mb 57f 61f
8:12 17 21 mph 1023.9mb 57f 61f
8:06 15 21 mph 1023.9mb 57f 61f
8:00 15 20 mph 1023.9mb 57f 61f
7:36 17 22 mph 1024mb 57f 61f
7:30 17 22 mph 1024mb 57f 61f
7:24 17 22 mph 1023.9mb 57f 61f
7:18 17 22 mph 1024mb 58f 61f
7:12 16 20 mph 1023.9mb 58f 61f
7:06 17 22 mph 1023.9mb 58f 61f
7:00 17 21 mph 1023.8mb 58f 61f
6:36 18 21 mph 1023.8mb 58f 61f
6:30 18 22 mph 1023.8mb 58f 61f
6:24 17 23 mph 1023.9mb 58f 61f
6:18 18 22 mph 1023.9mb 58f 61f
6:12 17 21 mph 1023.9mb 58f 61f
6:06 17 22 mph 1023.9mb 58f 61f
6:00 17 21 mph 1024mb 58f 61f
5:36 18 23 mph 1024.3mb 58f 61f
5:30 20 24 mph 1024.3mb 58f 61f
5:24 18 23 mph 1024.3mb 58f 60f
5:18 20 24 mph 1024.4mb 58f 60f
5:12 18 23 mph 1024.4mb 58f 60f
5:06 17 24 mph 1024.5mb 58f 60f
5:00 17 22 mph 1024.5mb 58f 60f
4:36 16 21 mph 1024.5mb 58f 59f
4:30 17 22 mph 1024.7mb 58f 59f
4:24 17 22 mph 1024.6mb 58f 59f
4:18 17 21 mph 1024.7mb 58f 59f
4:12 18 23 mph 1024.6mb 58f 59f
4:06 18 23 mph 1024.7mb 57f 59f
4:00 18 22 mph 1024.7mb 57f 59f
3:36 21 24 mph 1024.9mb 57f 59f
3:30 21 23 mph 1024.9mb 57f 59f
3:24 21 24 mph 1024.9mb 57f 59f
3:18 20 23 mph 1025mb 57f 59f
3:12 17 23 mph 1025mb 57f 59f
3:06 17 22 mph 1025mb 57f 59f
3:00 17 22 mph 1025.1mb 57f 59f
2:36 20 23 mph 1025.4mb 57f 58f
2:30 17 22 mph 1025.4mb 57f 58f
2:24 16 21 mph 1025.4mb 57f 59f
2:18 16 21 mph 1025.4mb 57f 59f
2:12 17 21 mph 1025.4mb 57f 59f
2:06 16 21 mph 1025.4mb 57f 58f
2:00 21 23 mph 1025.4mb 57f 58f
1:36 20 23 mph 1025.6mb 57f 59f
1:30 20 22 mph 1025.6mb 56f 59f
1:24 16 22 mph 1025.5mb 57f 59f
1:18 16 20 mph 1025.6mb 57f 59f
1:12 17 21 mph 1025.7mb 57f 59f
1:06 18 21 mph 1025.8mb 56f 59f
1:00 16 21 mph 1025.7mb 56f 59f
12:36 13 16 mph 1025.7mb 56f 59f
12:30 13 16 mph 1025.7mb 56f 59f
12:24 14 18 mph 1025.8mb 56f 59f
12:18 14 16 mph 1025.9mb 56f 59f
12:12 13 16 mph 1025.9mb 56f 59f
12:06 13 17 mph 1025.9mb 56f 59f
12:00 11 15 mph 1026mb 56f 59f
11:36 11 14 mph 1026mb 56f 59f
11:30 11 15 mph 1026mb 56f 59f
11:24 11 14 mph 1026mb 56f 59f
11:18 13 14 mph 1025.9mb 56f 59f
11:12 11 15 mph 1025.9mb 56f 59f
11:06 11 14 mph 1026mb 56f 59f
11:00 10 14 mph 1025.9mb 56f 59f
10:36 10 14 mph 1025.8mb 56f 59f
10:30 10 11 mph 1025.8mb 56f 59f
10:24 9 10 mph 1025.8mb 56f 60f
10:18 9 13 mph - - 60f
10:12 11 14 mph - - 59f
10:06 10 13 mph - - 60f
10:00 9 11 mph - - 60f
9:36 7 13 mph 1026mb 57f 59f
9:30 9 11 mph 1026.1mb 57f 59f
9:24 9 11 mph 1026.2mb 57f 59f
9:18 9 11 mph 1026.2mb 57f 59f
9:12 8 10 mph 1026.2mb 57f 59f
9:06 7 9 mph 1026.2mb 57f 59f
9:00 8 10 mph 1026.1mb 57f 59f
8:36 6 9 mph 1026mb 57f 59f
8:30 3 5 mph 1026mb 57f 59f
8:24 3 5 mph 1026mb 57f 59f
8:18 3 5 mph 1026mb 57f 59f
8:12 1 2 mph 1025.9mb 57f 59f
8:06 2
mph
1026mb 58f 59f
8:00 2
mph
1026mb 58f 59f
7:36 1 2 mph 1025.8mb 58f 58f
7:30  -  1 mph 1025.8mb 58f 58f
7:24  -  2 mph 1025.7mb 58f 57f
7:18 2
mph
1025.7mb 58f 57f
7:12  -  2 mph 1025.7mb 58f 56f
7:06 1
mph
1025.6mb 58f 56f
7:00 1 2 mph 1025.5mb 58f 56f
6:36 2
mph
1025.5mb 59f 56f
6:30 2
mph
1025.5mb 59f 56f
6:24 2
mph
1025.4mb 59f 56f
6:18 2 3 mph 1025.4mb 60f 56f
6:12 2 3 mph 1025.3mb 60f 57f
6:06 2
mph
1025.4mb 60f 56f
6:00  -  1 mph 1025.4mb 61f 56f
5:54 1 2 mph 1025.4mb 61f 56f
5:48 2
mph
1025.3mb 61f 56f
5:36 2 3 mph 1025.3mb 62f 57f
5:30 2 3 mph 1025.3mb 62f 57f
5:24 2
mph
1025.3mb 62f 58f
5:18 1 2 mph 1025.3mb 62f 58f
5:12 1 3 mph 1025.3mb 62f 58f
5:06 2 3 mph 1025.3mb 62f 58f
5:00 2 5 mph 1025.3mb 62f 58f
4:54 2 5 mph 1025.3mb 62f 58f
4:48 1 5 mph 1025.4mb 62f 58f
4:36 3 5 mph 1025.3mb 62f 59f
4:30 3 8 mph 1025.2mb 62f 59f
4:24 6 8 mph 1025.2mb 62f 59f
4:18 6 8 mph 1025.3mb 62f 59f
4:12 6 8 mph 1025.3mb 62f 59f
4:06 6 7 mph 1025.3mb 61f 59f
4:00 6 7 mph 1025.3mb 61f 59f
3:54 6 7 mph 1025.4mb 61f 59f
3:48 3 6 mph 1025.4mb 61f 59f
3:36 1
mph
1025.4mb 60f 58f
3:30  -  1 mph 1025.4mb 60f 58f
3:24  -  2 mph 1025.4mb 59f 58f
3:18 1 2 mph 1025.4mb 59f 59f
3:12 1 2 mph 1025.3mb 58f 58f
3:06  -  2 mph 1025.3mb 58f 58f
3:00 2 3 mph 1025.3mb 58f 58f
2:54  -  2 mph 1025.3mb 58f 58f
2:48  -  1 mph 1025.3mb 58f 58f
2:36 2
mph
1025.1mb 58f 58f
2:30 1 2 mph 1025.2mb 58f 58f
2:24 1 2 mph 1025.2mb 58f 58f
2:18 1 2 mph 1025.2mb 58f 58f
2:12 2
mph
1025.2mb 58f 58f
2:06 1 2 mph 1025.2mb 58f 58f
2:00 2
mph
1025.3mb 58f 58f
1:54 2 3 mph 1025.3mb 58f 58f
1:48 2 3 mph 1025.4mb 58f 58f
1:36 1 3 mph 1025.3mb 58f 58f
1:30 2 3 mph 1025.3mb 58f 58f
1:24 2 3 mph 1025.2mb 58f 58f
1:18 1 2 mph 1025.2mb 58f 58f
1:12 1 3 mph 1025.2mb 58f 58f
1:06 1 2 mph 1025.3mb 58f 58f
1:00 1 3 mph 1025.3mb 57f 58f
12:54 3
mph
1025.3mb 57f 58f
12:48 2 3 mph 1025.3mb 57f 58f
12:36 2 5 mph 1025.3mb 57f 58f
12:30 2 5 mph 1025.3mb 57f 58f
12:24 2 5 mph 1025.3mb 57f 58f
12:18 3
mph
1025.3mb 57f 58f
12:12 3 5 mph 1025.3mb 57f 58f
12:06 3 5 mph 1025.3mb 57f 58f
12:00 3 5 mph 1025.4mb 57f 58f
lun 07/27 11:54 3 5 mph 1025.3mb 57f 58f
11:48 3 5 mph 1025.3mb 57f 58f
11:36 3 6 mph 1025.4mb 57f 59f
11:30 3 5 mph 1025.4mb 57f 59f
11:24 3
mph
1025.4mb 57f 59f
11:18 2 5 mph 1025.4mb 57f 59f
11:12 2 5 mph 1025.5mb 57f 59f
11:06 2 6 mph 1025.5mb 57f 59f
11:00 5 6 mph 1025.5mb 57f 60f
10:54 3 6 mph 1025.6mb 57f 60f
10:48 6 7 mph 1025.6mb 57f 60f
10:36 6 7 mph 1025.7mb 57f 60f
10:30 6 9 mph 1025.7mb 57f 60f
10:24 7 9 mph 1025.8mb 57f 60f
10:18 6 8 mph 1025.8mb 57f 60f
10:12 7 8 mph 1025.8mb 57f 60f
10:06 5 6 mph 1025.8mb 57f 60f
10:00 3 7 mph 1025.8mb 57f 60f
9:54 3 6 mph 1025.7mb 57f 60f
9:48 3 6 mph 1025.7mb 57f 60f
9:36 6 7 mph 1025.6mb 57f 60f
9:30 6 8 mph 1025.6mb 57f 60f
9:24 6 9 mph 1025.7mb 57f 60f
9:18 6 8 mph 1025.6mb 57f 60f
9:12 6 8 mph 1025.6mb 57f 60f
9:06 7 8 mph 1025.6mb 57f 60f
9:00 7 9 mph 1025.5mb 57f 60f
8:54 7 8 mph 1025.5mb 57f 60f
8:48 6 8 mph 1025.4mb 57f 60f
8:36 8 9 mph 1025.3mb 57f 60f
8:30 8 10 mph 1025.3mb 57f 60f
8:24 8 11 mph 1025.2mb 57f 60f
8:18 9 10 mph 1025.2mb 57f 60f
8:12 8 10 mph 1025.2mb 57f 60f
8:06 8 9 mph 1025.3mb 57f 60f
8:00 7 8 mph 1025.3mb 57f 60f
7:54 7 8 mph 1025.2mb 57f 60f
7:48 6 8 mph 1025.2mb 57f 60f
7:36 7 9 mph 1025.2mb 57f 60f
7:30 8 10 mph 1025.1mb 57f 60f
7:24 9 13 mph 1025mb 57f 60f
7:18 10 13 mph 1024.9mb 57f 60f
7:12 9 13 mph 1024.9mb 57f 60f
7:06 10 11 mph 1024.8mb 57f 60f
7:00 10 13 mph 1024.8mb 57f 60f
6:54 10 13 mph 1024.8mb 57f 60f
6:48 9 11 mph 1024.8mb 57f 60f
6:36 10 13 mph 1024.8mb 56f 61f
6:30 10 14 mph 1024.8mb 56f 61f
6:24 11 15 mph 1024.8mb 57f 60f
6:18 11 14 mph 1024.8mb 57f 60f
6:12 9 11 mph - - 60f
6:06 7 9 mph - - 60f
6:00 7 8 mph - - 60f
5:54 7 9 mph - 57f 60f
5:48 7 9 mph - 57f 60f
5:36 8 10 mph - 57f 60f
5:30 8 10 mph - 57f 60f
5:24 9 10 mph - 57f 60f
5:18 8 11 mph - 57f 60f
5:12 10 13 mph - 57f 60f
5:06 9 11 mph - 57f 60f
5:00 9 13 mph - 57f 60f
4:54 11 14 mph - 57f 60f
4:48 11 14 mph - 57f 60f
4:36 10 13 mph - 57f 60f
4:30 9 14 mph - 57f 60f
4:24 10 14 mph - 57f 60f
4:18 9 11 mph - 57f 60f
4:12 10 13 mph - 57f 60f
4:06 9 13 mph - 57f 60f
4:00 8 10 mph - 57f 60f
3:54 8 11 mph - 57f 60f
3:48 8 10 mph - 57f 60f
3:36 9 13 mph - 57f 60f
3:30 10 13 mph - 57f 60f
3:24 10 13 mph - 57f 60f
3:18 11 14 mph - 57f 60f
3:12 10 13 mph - 57f 60f
3:06 9 11 mph - 57f 60f
3:00 10 13 mph - 57f 60f
2:54 9 11 mph - 57f 60f
2:48 9 11 mph - 57f 60f
2:36 8 10 mph - 57f 60f
2:30 8 9 mph - 57f 60f
2:24 8 9 mph - 56f 60f
2:18 7 8 mph - 57f 60f
2:12 8 9 mph - 57f 59f
2:06 7 8 mph 1023.9mb 57f 59f
2:00 6 7 mph 1023.9mb 57f 60f
1:54 7 8 mph 1023.9mb 56f 59f
1:48 6 7 mph 1023.9mb 56f 59f
1:36 5 6 mph 1023.7mb 56f 60f
1:30 5 6 mph 1023.7mb 56f 60f
1:24 5 6 mph 1023.7mb 56f 60f
1:18 5 7 mph 1023.6mb 56f 60f
1:12 7 8 mph 1023.7mb 56f 59f
1:06 5 7 mph 1023.7mb 56f 59f
1:00 6 8 mph 1023.7mb 56f 60f
12:54 7 9 mph 1023.7mb 56f 59f
12:48 7 9 mph 1023.6mb 56f 59f
12:36 7 8 mph 1023.6mb 56f 59f
12:30 5 6 mph 1023.6mb 56f 59f
12:24 6 7 mph 1023.6mb 56f 59f
12:18 6 7 mph 1023.6mb 56f 59f
12:12 3 5 mph 1023.4mb 56f 59f
12:06 3 5 mph 1023.4mb 56f 59f
12:00 3 6 mph 1023.3mb 56f 59f
11:54 6 8 mph 1023.4mb 56f 59f
11:48 7 8 mph 1023.3mb 56f 59f
11:36 6 7 mph 1023.2mb 56f 59f
11:30 6 7 mph 1023.1mb 56f 59f
11:24 6 7 mph 1023.2mb 56f 59f
11:18 3 6 mph 1023.1mb 56f 59f
11:12 5 6 mph 1022.9mb 56f 59f
11:06 5 7 mph 1023mb 56f 59f
11:00 7 8 mph 1023mb 56f 59f
10:54 6 7 mph 1023mb 56f 58f
10:48 6 8 mph 1022.9mb 56f 59f
10:36 6 8 mph 1022.9mb 56f 59f
10:30 6 7 mph 1022.8mb 56f 59f
10:24 5 7 mph 1022.8mb 56f 59f
10:18 6 7 mph 1022.8mb 56f 59f
10:12 5 7 mph 1022.6mb 56f 59f
10:06 6 8 mph 1022.6mb 56f 59f
10:00 5 6 mph 1022.6mb 56f 59f
9:54 3 6 mph 1022.5mb 56f 59f
9:48 5 6 mph 1022.4mb 56f 59f
9:36 3 6 mph 1022.3mb 56f 58f
9:30 5 6 mph 1022.3mb 56f 58f
9:24 3 7 mph 1022.2mb 56f 59f
9:18 6 7 mph 1022.3mb 56f 59f
9:12 7 9 mph 1022.3mb 56f 59f
9:06 6 7 mph 1022.2mb 56f 59f
9:00 5 6 mph 1022.2mb 56f 59f
8:54 5 6 mph 1022.1mb 56f 59f
8:48 5 6 mph 1022.1mb 56f 58f
8:36  -  2 mph 1022.1mb 56f 57f
8:30 3
mph
1022.1mb 56f 57f
8:24 3
mph
1022.1mb 56f 56f
8:18 3
mph
1022.1mb 56f 56f
8:12 3 5 mph 1022mb 56f 56f
8:06 3 5 mph 1022mb 56f 56f
8:00 3 6 mph 1022mb 56f 56f
7:54 5 6 mph 1021.9mb 56f 56f
7:48 3 5 mph 1021.8mb 56f 56f
7:36 6 7 mph 1021.7mb 56f 55f
7:30 3 6 mph 1021.7mb 56f 55f
7:24 3 5 mph 1021.7mb 56f 55f
7:18 3 5 mph 1021.6mb 56f 55f
7:12 6
mph
1021.5mb 56f 55f
7:06 5 7 mph 1021.5mb 56f 55f
7:00 5 6 mph 1021.5mb 56f 55f
6:54 5 7 mph 1021.5mb 56f 55f
6:48 5 6 mph 1021.4mb 56f 54f
6:36 5 6 mph 1021.4mb 56f 54f
6:30 5 6 mph 1021.4mb 56f 54f
6:24 5 7 mph 1021.3mb 57f 54f
6:18 6 8 mph 1021.2mb 56f 54f
6:12 6 7 mph 1021.2mb 56f 54f
6:06 5 6 mph 1021.3mb 57f 54f
6:00 5 7 mph 1021.2mb 57f 54f
5:54 5 7 mph 1021.2mb 57f 54f
5:48 5 6 mph 1021.1mb 56f 54f
5:36 6
mph
1021.1mb 57f 54f
5:30 5 6 mph 1021.1mb 57f 54f
5:24 5 6 mph 1021mb 57f 54f
5:18 6 7 mph 1021mb 57f 54f
5:12 3 6 mph 1020.9mb 57f 54f
5:06 6 7 mph 1020.9mb 57f 54f
5:00 6 7 mph 1020.8mb 57f 54f
4:54 6 8 mph 1020.8mb 58f 54f
4:48 6 8 mph 1020.8mb 58f 54f
4:36 6 9 mph 1020.8mb 58f 53f
4:30 6 8 mph 1020.7mb 58f 53f
4:24 6 7 mph 1020.6mb 58f 53f
4:18 6 9 mph 1020.6mb 59f 53f
4:12 7 8 mph 1020.6mb 59f 53f
4:06 6 8 mph 1020.6mb 59f 53f
4:00 6 8 mph 1020.6mb 59f 53f
3:54 6 8 mph 1020.5mb 59f 53f
3:48 7 8 mph 1020.6mb 59f 53f
3:36 6 8 mph 1020.5mb 59f 53f
3:30 6 8 mph 1020.5mb 58f 53f
3:24 6 7 mph 1020.4mb 58f 53f
3:18 6 8 mph 1020.5mb 58f 53f
3:12 7 9 mph 1020.4mb 58f 53f
3:06 6 7 mph 1020.4mb 58f 53f
3:00 6 8 mph 1020.5mb 57f 54f
2:54 7 8 mph 1020.4mb 57f 53f
2:48 5 6 mph 1020.4mb 57f 54f
2:36 6 7 mph 1020.4mb 56f 54f
2:30 6 7 mph 1020.3mb 56f 54f
2:24 6 7 mph 1020.3mb 56f 54f
2:18 6 8 mph 1020.4mb 56f 54f
2:12 7 8 mph 1020.4mb 56f 53f
2:06 6 7 mph 1020.3mb 56f 53f
2:00 6 7 mph 1020.3mb 56f 53f
1:54 5 7 mph 1020.4mb 56f 53f
1:48 6 8 mph 1020.4mb 56f 54f
1:36 6 7 mph 1020.4mb 56f 54f
1:30 5 7 mph 1020.4mb 56f 54f
1:24 3 7 mph 1020.4mb 55f 54f
1:18 5 7 mph 1020.3mb 56f 54f
1:12 5 7 mph 1020.4mb 56f 54f
1:06 5 6 mph 1020.4mb 56f 54f
1:00 5 6 mph 1020.4mb 56f 54f
12:54 5 6 mph 1020.4mb 56f 54f
12:48 5 6 mph 1020.4mb 56f 55f
12:36 2 3 mph 1020.4mb 56f 55f
12:30 2 3 mph 1020.5mb 56f 55f
12:24 3 5 mph 1020.4mb 56f 55f
12:18 3 5 mph 1020.4mb 56f 55f
12:12 3 5 mph 1020.4mb 56f 55f
12:06 3
mph
1020.4mb 56f 56f
12:00 2 3 mph 1020.5mb 56f 56f
dom 07/26 11:54 3
mph
1020.5mb 56f 56f
11:48  -  2 mph 1020.5mb 55f 56f
11:36 2
mph
1020.4mb 56f 56f
11:30 2
mph
1020.4mb 55f 56f
11:24 2 3 mph 1020.4mb 55f 56f
11:18 2 3 mph 1020.4mb 55f 56f
11:12 2
mph
1020.4mb 55f 56f
11:06 2
mph
1020.4mb 55f 56f
11:00 2
mph
1020.5mb 55f 56f
10:54 1 2 mph 1020.5mb 55f 57f
10:48 2
mph
1020.5mb 55f 57f
10:36 1 3 mph 1020.5mb 55f 57f
10:30 2 3 mph 1020.5mb 55f 57f
10:24 1 2 mph 1020.5mb 55f 57f
10:18 2
mph
1020.5mb 55f 58f
10:12 1 2 mph 1020.5mb 55f 58f
10:06 1 3 mph 1020.5mb 55f 58f
10:00 1 2 mph 1020.5mb 55f 58f
9:54 1 3 mph 1020.5mb 55f 59f
9:48 5 7 mph 1020.5mb 55f 59f
9:36 7 8 mph 1020.4mb 55f 59f
9:30 6 9 mph 1020.4mb 55f 59f
9:24 7 11 mph 1020.3mb 55f 59f
9:18 6 8 mph 1020.3mb 55f 60f
9:12 8 10 mph 1020.2mb 55f 60f
9:06 7 11 mph 1020.2mb 55f 60f
9:00 8 10 mph 1020.2mb 55f 59f
8:54 8 9 mph 1020.2mb 55f 60f
8:48 9 10 mph 1020.2mb 55f 60f
8:36 9 10 mph 1020.2mb 55f 60f
8:30 9 13 mph 1020.1mb 55f 60f
8:24 10 14 mph 1020.1mb 55f 60f
8:18 11 14 mph 1020.1mb 55f 60f
8:12 10 13 mph 1020.1mb 55f 60f
8:06 10 13 mph 1020mb 55f 60f
8:00 11 14 mph 1020mb 55f 60f
7:54 9 10 mph 1020mb 55f 60f
7:48 8 10 mph 1019.9mb 55f 60f
7:36 6 7 mph 1019.7mb 55f 61f
7:30 7 8 mph 1019.6mb 55f 61f
7:24 7 8 mph 1019.6mb 55f 61f
7:18 8 9 mph 1019.7mb 55f 61f
7:12 8 10 mph 1019.6mb 55f 61f
7:06 9 10 mph 1019.6mb 55f 61f
7:00 7 9 mph 1019.6mb 55f 61f
6:54 7 9 mph 1019.6mb 55f 61f
6:48 7 8 mph 1019.7mb 55f 60f
6:36 7 8 mph 1019.7mb 55f 60f
6:30 8 9 mph 1019.7mb 55f 60f
6:24 7 8 mph 1019.7mb 55f 61f
6:18 6 7 mph 1019.7mb 55f 61f
6:12 6 7 mph 1019.6mb 55f 61f
6:06 6 7 mph 1019.6mb 55f 61f
6:00 6 7 mph 1019.6mb 55f 60f
5:54 6 7 mph 1019.6mb 55f 60f
5:48 6 8 mph 1019.5mb 55f 61f
5:36 6 7 mph 1019.5mb 55f 60f
5:30 7 8 mph 1019.5mb 55f 60f
5:24 6 7 mph 1019.6mb 55f 61f
5:18 5 7 mph 1019.5mb 55f 61f
5:12 6 8 mph 1019.5mb 55f 60f
5:06 6 8 mph 1019.5mb 55f 61f
5:00 7 9 mph 1019.5mb 55f 61f
4:54 6 8 mph 1019.5mb 55f 61f
4:48 6 8 mph 1019.4mb 55f 61f
4:36 7 8 mph 1019.4mb 55f 61f
4:30 7 9 mph 1019.4mb 55f 61f
4:24 8 9 mph 1019.5mb 55f 60f
4:18 7 9 mph 1019.4mb 55f 60f
4:12 7 9 mph 1019.5mb 55f 60f
4:06 7 9 mph 1019.5mb 55f 60f
4:00 8 10 mph - - 60f
3:54 8 10 mph - - 61f
3:48 8 10 mph - - 61f
3:36 7 9 mph 1019.5mb 55f 61f
3:30 7 9 mph 1019.4mb 55f 61f
3:24 7 8 mph 1019.3mb 55f 61f
3:18 7 9 mph 1019.3mb 55f 61f
3:12 8 9 mph 1019.3mb 54f 60f
3:06 6 8 mph 1019.3mb 55f 60f
3:00 7 9 mph 1019.3mb 54f 61f
2:54 7 9 mph 1019.4mb 54f 60f
2:48 7 8 mph 1019.3mb 54f 60f
2:36 7 9 mph 1019.3mb 54f 60f
2:30 7 9 mph 1019.3mb 54f 60f
2:24 7 8 mph 1019.3mb 54f 60f
2:18 6 9 mph 1019.3mb 54f 60f
2:12 7 9 mph 1019.3mb 54f 60f
2:06 8 10 mph 1019.3mb 54f 60f
2:00 8 10 mph 1019.4mb 54f 60f
1:54 8 10 mph 1019.4mb 54f 60f
1:48 8 10 mph 1019.3mb 54f 60f
1:36 8 10 mph 1019.2mb 54f 60f
1:30 8 10 mph 1019.2mb 54f 60f
1:24 7 9 mph 1019.2mb 54f 60f
1:18 7 8 mph 1019.1mb 54f 60f
1:12 7 9 mph 1019.2mb 54f 60f
1:06 7 8 mph 1019.2mb 54f 60f
1:00 7 9 mph 1019.2mb 54f 60f
12:54 7 8 mph 1019.2mb 54f 60f
12:48 7 8 mph 1019.1mb 54f 60f
12:36 6 8 mph 1019mb 54f 60f
12:30 6 8 mph 1018.9mb 54f 60f
12:24 5 6 mph 1018.9mb 54f 60f
12:18 3 6 mph 1018.9mb 54f 60f
12:12 5 6 mph 1018.9mb 54f 60f
12:06 6 7 mph 1018.9mb 54f 60f
12:00 6 7 mph 1019mb 54f 60f
11:54 6 8 mph 1018.9mb 54f 60f
11:48 6 8 mph 1019mb 54f 60f
8:36 2 3 mph - 54f 58f
8:30 2 5 mph - 54f 58f
8:24 2 3 mph - 54f 58f
8:18 2 3 mph - 54f 58f
8:12 2 5 mph - 54f 57f
8:06 3 5 mph - 54f 57f
8:00 3 5 mph - 54f 57f
7:54 3 5 mph - 54f 57f
7:48 3 5 mph - 54f 57f
7:36 2 5 mph - 54f 57f
7:30 3 6 mph - 54f 57f
7:24 3 5 mph - 54f 57f
7:18 2 3 mph - 54f 57f
7:12 3 5 mph - 54f 57f
7:06 3 5 mph - 54f 56f
7:00 2 5 mph - 54f 56f
6:54 3 5 mph - 54f 56f
6:48 2 5 mph - 54f 56f
6:36 2 5 mph - 54f 56f
6:30 3 5 mph - 54f 56f
6:24 3 5 mph - 54f 56f
6:18 2 5 mph - 54f 56f
6:12 3 5 mph - 54f 56f
6:06 3 5 mph - 54f 56f
6:00 3 5 mph - 54f 56f
5:54 3 5 mph - 54f 56f
5:48 2 3 mph - 54f 56f
5:36 3 5 mph - 54f 56f
5:30 3 5 mph - 54f 56f
5:24 3 5 mph - 54f 56f
5:18 3 5 mph - 54f 56f
5:12 3 5 mph - 54f 56f
5:06 2 3 mph - 54f 56f
5:00 2 5 mph - 54f 56f
4:36 3
mph
- 55f 56f
4:30 2 6 mph - 55f 56f
4:24 6
mph
- 55f 56f
4:18 5
mph
- 55f 56f
4:12 2 3 mph - 55f 57f
4:06 2 3 mph - 55f 57f
4:00 2 5 mph - 55f 57f
3:54 3 5 mph - 55f 57f
3:48 3
mph
- 55f 57f
3:36 3 6 mph - 56f 57f
3:30 2 5 mph - 56f 57f
3:24 3 5 mph - 56f 57f
3:18 5
mph
- 55f 57f
3:12 3 6 mph - 55f 57f
3:06 3 5 mph - 56f 57f
3:00 3 5 mph - 55f 57f
2:54 3 5 mph - 56f 57f
2:48 2 3 mph - 56f 57f
2:36 1 3 mph - 55f 57f
2:30 2 5 mph - 55f 57f
2:24 3 5 mph - 55f 57f
2:18 3 5 mph - 55f 57f
2:12 3
mph
- 55f 57f
2:06 3 5 mph - 55f 57f
2:00 3 5 mph - 55f 57f
1:54 3 5 mph - 54f 57f
1:48 3 5 mph - 54f 57f
1:36 3
mph
- 54f 58f
1:30 2 3 mph - 54f 58f
1:24 2 5 mph - 54f 58f
1:18 3 5 mph - 54f 58f
1:12 3
mph
- 54f 58f
1:06 2 3 mph - 53f 58f
1:00 2 3 mph - 53f 58f
12:54 2 3 mph - 53f 58f
12:48 1 2 mph - 53f 58f
12:36 2
mph
- 53f 58f
12:30 2
mph
- 53f 58f
12:24 2 3 mph - 53f 58f
12:18 2
mph
- 54f 58f
12:12 1 2 mph - 54f 59f
12:06 2
mph
- 54f 59f
12:00  -  1 mph - 53f 59f
sáb 07/25 11:54 1 2 mph - 53f 58f
11:48 1 2 mph - 53f 59f
11:36  -  1 mph - 53f 59f
11:30  -  1 mph - 53f 59f
11:24  -  1 mph - 53f 59f
11:18  -  1 mph - 53f 59f
11:12  -  2 mph - 53f 59f
11:06 1 2 mph - 53f 59f
11:00 1 2 mph - 53f 59f
10:54  -  1 mph - 53f 59f
10:48  -  2 mph - 53f 59f
10:36  -  1 mph - 53f 59f
10:30 1
mph
- 53f 59f
10:24  -  1 mph - 53f 59f
10:18  -  1 mph - 53f 59f
10:12  -  2 mph - 53f 59f
10:06 1 2 mph - 53f 59f
10:00 1
mph
- 53f 59f
9:54  -  1 mph - 53f 60f
9:48 1
mph
- 53f 60f
9:36 1 2 mph - 53f 60f
9:30 1 2 mph - 53f 60f
9:24 2 5 mph - 53f 60f
9:18 3
mph
- 53f 60f
9:12 3 5 mph - 53f 60f
9:06 3 5 mph - 53f 60f
9:00 3
mph
- 53f 60f
8:54 3 5 mph - 53f 60f
8:48 3
mph
1018.4mb 53f 60f
8:36 2 5 mph 1018.5mb 53f 60f
8:30 3 5 mph 1018.5mb 53f 60f
8:24 2 3 mph 1018.5mb 53f 60f
8:18 2 5 mph 1018.5mb 53f 60f
8:12 3 5 mph 1018.4mb 53f 60f
8:06 3 5 mph 1018.5mb 53f 60f
8:00 3
mph
1018.5mb 53f 60f
7:54 3 5 mph 1018.5mb 53f 60f
7:48 3 5 mph 1018.5mb 53f 61f
7:36 3 5 mph 1018.6mb 53f 61f
7:30 3 5 mph 1018.7mb 53f 61f
7:24 3 5 mph 1018.7mb 53f 61f
7:18 3 5 mph 1018.7mb 53f 61f
7:12 5 6 mph 1018.7mb 53f 60f
7:06 5 6 mph 1018.8mb 53f 60f
7:00 5 6 mph 1018.8mb 53f 60f
6:54 3 6 mph 1018.7mb 53f 61f
6:48 3 6 mph 1018.7mb 53f 60f
6:36 5 7 mph 1018.7mb 53f 61f
6:30 5 7 mph 1018.8mb 53f 61f
6:24 6 7 mph 1018.8mb 53f 60f
6:18 5 7 mph 1018.8mb 53f 60f
6:12 6 7 mph 1018.9mb 53f 60f
6:06 5 6 mph 1018.9mb 53f 60f
6:00 6 7 mph 1019mb 53f 60f
5:54 6 7 mph 1019mb 53f 61f
5:48 6 7 mph 1019mb 53f 61f
5:36 6 8 mph 1019mb 53f 61f
5:30 7 8 mph 1019mb 53f 61f
5:24 6 8 mph 1019mb 53f 61f
5:18 5 6 mph 1019.1mb 53f 61f
5:12 3 8 mph 1019.1mb 53f 61f
5:06 5 7 mph 1019.1mb 53f 61f
5:00 5 6 mph 1019.1mb 53f 61f
4:54 6 7 mph 1019.1mb 53f 61f
4:48 5 8 mph 1019.2mb 53f 61f
4:36 6 8 mph 1019.2mb 53f 61f
4:30 6 9 mph 1019.2mb 53f 61f
4:24 6 8 mph 1019.2mb 53f 61f
4:18 6 8 mph 1019.2mb 53f 61f
4:12 6 9 mph 1019.2mb 53f 61f
4:06 7 9 mph 1019.3mb 53f 61f
4:00 8 11 mph 1019.2mb 53f 61f
3:54 7 8 mph 1019.2mb 53f 61f
3:48 7 10 mph 1019.2mb 53f 61f
3:36 7 9 mph 1019.3mb 53f 60f
3:30 8 10 mph 1019.3mb 53f 60f
3:24 8 9 mph 1019.3mb 53f 61f
3:18 7 10 mph 1019.3mb 53f 61f
3:12 8 9 mph 1019.3mb 53f 60f
3:06 7 9 mph 1019.3mb 53f 60f
3:00 7 9 mph 1019.3mb 53f 61f
2:54 7 10 mph 1019.3mb 53f 61f
2:48 7 9 mph 1019.3mb 53f 61f
2:36 9 11 mph 1019.2mb 53f 61f
2:30 9 11 mph 1019.2mb 53f 61f
2:24 9 10 mph 1019.2mb 53f 61f
2:18 8 9 mph 1019.2mb 53f 61f
2:12 8 10 mph 1019.2mb 53f 61f
2:06 8 10 mph 1019.2mb 53f 61f
2:00 8 9 mph 1019.3mb 53f 60f
1:54 9 13 mph 1019.3mb 52f 60f
1:48 10 11 mph 1019.3mb 53f 60f